Погода в Сладкове

Россия / Тюменская область     55°31′52″N   70°20′47″E
темп.,
°C
ветер,
м/с
пор.,
м/с
влажн.,
%
обл.,
%
осадки,
мм/ч
давл.,
гПа
погр.,
м
27 января, ср
ср2723:00−2з6119496 0.2 1025513
02:00−1зюз61194100 0.0 1024483
05:00−4з71293100 0.1 1025651
08:00−2з61293100 0.1 1024737
11:00−3з71192100 0.2 1025586
14:00−4з6109296 0.1 1026526
17:00−7з499496 0.1 1028217
20:00−8зюз479524 0.0 1029109
28 января, чт
чт2823:00−8зюз499647 0.0 1029162
02:00−9зюз499687 0.0 1029205
05:00−10зюз499585 0.0 1029179
08:00−8зюз5109497 0.0 1028259
11:00−6зюз6119399 0.0 1028329
14:00−4зюз81487100 0.0 1027420
17:00−5зюз81886100 0.0 1026449
20:00−5зюз91888100 0.0 1025471
29 января, пт
пт2923:00−5зюз91786100 0.0 1025510
02:00−5зюз81785100 0.0 1025454
05:00−7зюз71587100 0.0 1026374
08:00−9зюз61289100 0.0 1026319
11:00−8зюз61090100 0.0 1027325
14:00−8зюз5990100 0.0 1027330
17:00−9зюз4992100 0.0 1028236
20:00−11зюз3694100 0.0 1028106
30 января, сб
сб3023:00−12зюз3491100 0.0 102840
02:00−12юз3489100 0.0 102833
05:00−12ююз338799 0.0 102821
08:00−12ююв338398 0.0 102721
11:00−9юв478570 0.0 1026177
14:00−6юв598778 0.0 1025278
17:00−8юв498888 0.0 1023163
20:00−7ююв4889100 0.0 1022195
31 января, вс
вс3123:00−8ююв4890100 0.0 1021168
02:00−7ю3792100 0.0 1020176
05:00−10ююз3493100 0.0 101969
08:00−11юз349692 0.0 102047
11:00−9зюз359695 0.0 1021182
14:00−7з3495100 0.0 1021237
17:00−10з239695 0.0 102221
20:00−12зсз229587 0.0 102421